Aérodrome :
LOGIN :

S'inscrire | Disclaimer

   EN    FR    IT 

 










Légende :    VFR   VFR Marginal   IFR   IFR Intensif   IFR Très Intensif
Visi : 
Plafond : 
>= 8 km
>= 3000ft
5 à 8 km
1000 à 3000 ft
1500m à 5 km
500 à 1000 ft
800 à 1500m
200 à 500 ft
< 800m
< 200 ft
Symboles :   Orages  Brouillard  Fortes neiges  Fortes précipitations  Vent > 20 kt
SIGMETs :   Divers  Orages  Givrage  Turbulence  Onde Orograph.  Cendres Volcan.







- Altitude de l'aérodrome : 74 ft
- Code IATA : MRS
- Voir les cartes d'approche


LFML - Marseille / Marignane

DERNIER METAR :
  • 171000Z AUTO VRB02KT CAVOK 11/06 Q1029 NOSIG

METARs EXPIRÉS :
  • 170930Z AUTO 00000KT CAVOK 11/05 Q1029 NOSIG
  • 170900Z AUTO VRB02KT CAVOK 08/05 Q1029 NOSIG
  • 170830Z AUTO VRB03KT CAVOK 07/04 Q1029 TEMPO 0500 FG BKN004
  • 170800Z AUTO VRB01KT CAVOK 06/03 Q1029 TEMPO 0500 FG BKN004
  • 170730Z AUTO 00000KT CAVOK 05/02 Q1029 TEMPO 0500 FG BKN004

TAF TAF LFML
Valide du 17 à 09h jusqu'au 18 à 15h UTC


170800Z 1709/1815 VRB05KT CAVOK TX14/1714Z TN04/1806Z
ATIS : +33 4 42 31 15 15
Pas de NOTAMs connus pour ce terrain.



MET'MAP, la Météo Aéronautique d'un coup d'oeil ! - Copyright ORBIFLY Décembre 2007 - Disclaimer

ORBIFLY MET'MAP TEAM :

Programmation & Développement : Alexandra Zaïnal
Conception & Développement : Baudouin d'Aumeries
Co-Programmation & Développement : Marc-Olivier Méhu
Soutien technique & logistique : Manuel Goepfert

Contact : metmap@orbifly.com




SOURCES & CREDITS :

   NOAA